Tracking 33404 objects as of 6-Mar-2026
HD Live streaming from Space Station
objects crossing your sky now

STARLINK-34111

Track STARLINK-34111 now!
10-day predictions
STARLINK-34111 is classified as:


NORAD ID: 64041
Int'l Code: 2025-102V
Perigee: 572.7 km
Apogee: 587.1 km
Inclination: 70.0 °
Period: 96.1 minutes
Semi major axis: 6950 km
RCS: Unknown
Launch date: May 16, 2025
Source: United States (US)
Launch site: AIR FORCE WESTERN TEST RANGE (AFWTR)
Your satellite tracking list
Your tracking list is empty




NASA's NSSDC Master Catalog

Two Line Element Set (TLE):
1 64041U 25102V   26065.23627958 -.00188524  00000-0 -16296-1 0  9991
2 64041  70.0028 123.2104 0010410 321.0339  39.0069 14.98100861 45211
Source of the keplerian elements: AFSPC